This is the latest recevied weather packets stored in our database for station/object DO7CRZ-11. If no packets are shown the sender has not sent any weather packets the latest 10 day(s).
| Time | Temp. | Humidity | Pressure | Rain* | Wind** | Luminosity | Snow |
|---|---|---|---|---|---|---|---|
| 1777494135 | 2.78° C | 49% | 1030.3 hPa | 0 mm | - | 0 W/m² | - |
| 1777492333 | 3.89° C | 46% | 1030.4 hPa | 0 mm | - | 0 W/m² | - |
| 1777491726 | 3.89° C | 45% | 1030.4 hPa | 0 mm | - | 0 W/m² | - |
| 1777491129 | 4.44° C | 44% | 1030.3 hPa | 0 mm | - | 0 W/m² | - |
| 1777490532 | 5° C | 43% | 1030.2 hPa | 0 mm | - | 0 W/m² | - |
| 1777489934 | 5° C | 42% | 1030.2 hPa | 0 mm | - | 0 W/m² | - |
| 1777488132 | 6.11° C | 38% | 1029.9 hPa | 0 mm | - | 0 W/m² | - |
| 1777487534 | 6.67° C | 37% | 1029.8 hPa | 0 mm | - | 1 W/m² | - |
| 1777486927 | 7.22° C | 36% | 1029.8 hPa | 0 mm | - | 3 W/m² | - |
| 1777486330 | 7.78° C | 36% | 1029.8 hPa | 0 mm | - | 6 W/m² | - |
| 1777485732 | 8.33° C | 35% | 1029.7 hPa | 0 mm | - | 11 W/m² | - |
| 1777485136 | 8.33° C | 34% | 1029.5 hPa | 0 mm | - | 15 W/m² | - |
| 1777484528 | 8.89° C | 33% | 1029.5 hPa | 0 mm | - | 20 W/m² | - |
| 1777483934 | 8.89° C | 33% | 1029.4 hPa | 0 mm | - | 24 W/m² | - |
| 1777483334 | 9.44° C | 33% | 1029.2 hPa | 0 mm | - | 28 W/m² | - |
| 1777482726 | 9.44° C | 32% | 1029.2 hPa | 0 mm | - | 33 W/m² | - |
| 1777482129 | 10.56° C | 32% | 1029.1 hPa | 0 mm | - | 49 W/m² | - |
| 1777481532 | 10.56° C | 31% | 1029 hPa | 0 mm | - | 66 W/m² | - |
| 1777480935 | 11.11° C | 31% | 1028.9 hPa | 0 mm | - | 83 W/m² | - |
| 1777480327 | 11.11° C | 31% | 1028.9 hPa | 0 mm | - | 103 W/m² | - |
| 1777479733 | 11.11° C | 31% | 1028.9 hPa | 0 mm | - | 127 W/m² | - |
| 1777479133 | 11.11° C | 30% | 1028.7 hPa | 0 mm | - | 152 W/m² | - |
| 1777478535 | 11.67° C | 30% | 1028.8 hPa | 0 mm | - | 175 W/m² | - |
| 1777477928 | 11.67° C | 30% | 1028.8 hPa | 0 mm | - | 199 W/m² | - |
| 1777477331 | 11.67° C | 28% | 1028.7 hPa | 0 mm | - | 227 W/m² | - |
* Rain latest hour (hover to see other rain measurements)
** Current wind speed in m/s (hover to see current wind gust speed)